Location: Highland Meadows Observing Site
(48.4428°N, 114.5461°W)
Time: 03:13:38
(UTC-06:00)

Amateur Radio Satellites - All Passes

Search period start: 05 May 2015 02:43
Search period end: 06 May 2015 02:43
Location: Highland Meadows Observing Site, 48.4428°N, 114.5461°W

Satellite Date Start Highest point End Downlink Frequencies (MHz)
Time Altitude Azimuth
BEESAT 2 05 May 02:57:11 03:00:54 31° 320° (NW) 03:04:38 435.950
STARS 05 May 03:01:10 03:05:00 30° 66° (ENE) 03:08:56 437.465
CUSAT 1 05 May 03:08:38 03:16:33 54° 70° (ENE) 03:24:37 437.405
Gurwin Techsat 1B 05 May 03:09:19 03:13:11 21° 89° (E) 03:17:11 435.225
GONETS M04 05 May 03:10:56 03:19:41 59° 73° (ENE) 03:28:22
DANDE 05 May 03:14:51 03:22:38 50° 69° (ENE) 03:30:58 436.750
ITAMSAT 1 05 May 03:17:10 03:21:26 26° 92° (E) 03:25:46 435.822/435.867
AIST 2 05 May 03:24:41 03:28:48 44° 316° (NW) 03:32:57 435.215
ITUPSAT 1 05 May 03:27:30 03:31:29 25° 267° (W) 03:35:24 437.325
BEESAT 05 May 03:52:56 03:55:47 15° 273° (W) 03:58:28 436.000
Oscar 19 05 May 03:58:00 04:03:05 52° 291° (WNW) 04:08:06 437.125/150
SWISSCUBE 05 May 03:58:03 04:00:16 13° 274° (W) 04:02:17 437.505
KKS-1 05 May 04:08:21 04:12:34 41° 262° (W) 04:16:49 437.445
JAS-2 05 May 04:10:26 04:12:43 13° 80° (E) 04:15:15 435.910
MOZHAYETS 4 05 May 04:15:35 04:19:09 23° 64° (ENE) 04:22:49
Cosmos 2499 05 May 04:21:52 04:28:24 31° 63° (ENE) 04:34:41 435.465 / 435.565
BEESAT 3 05 May 04:23:31 04:24:51 11° 341° (NNW) 04:26:06 437.485
STARS 05 May 04:37:26 04:41:26 33° 264° (W) 04:45:26 437.465
BEESAT 2 05 May 04:39:14 04:40:18 11° 343° (NNW) 04:41:17 435.950
HORYU 2 05 May 04:43:09 04:47:00 28° 94° (E) 04:50:53 437.375
Gurwin Techsat 1B 05 May 04:48:24 04:53:41 64° 289° (WNW) 04:58:56 435.225
CUSAT 1 05 May 04:51:37 04:59:13 43° 270° (W) 05:06:45 437.405
ITAMSAT 1 05 May 04:56:13 05:01:14 50° 291° (WNW) 05:06:13 435.822/435.867
DANDE 05 May 04:58:14 05:06:00 48° 268° (W) 05:14:01 436.750
O/OREOS (USA 219) 05 May 05:03:46 05:05:49 13° 40° (NE) 05:07:58 437.305
AIST 2 05 May 05:06:17 05:08:28 13° 338° (NNW) 05:10:35 435.215
GONETS M04 05 May 05:08:19 05:16:13 37° 275° (W) 05:23:53
AO-7 05 May 05:23:28 05:31:26 47° 99° (E) 05:39:27 29.400- 29.500
M-CUBED/EXP-1 PRIME 05 May 05:32:59 05:36:07 18° 55° (NE) 05:39:17 437.505
MOZHAYETS 4 05 May 05:51:37 05:56:07 49° 261° (W) 06:00:38
JAS-2 05 May 05:53:10 05:59:13 82° 103° (ESE) 06:04:37 435.910
STRAND 1 05 May 05:54:11 05:56:30 13° 54° (NE) 05:59:01 437.568
AUBIESAT-1 05 May 06:04:07 06:08:06 28° 60° (ENE) 06:12:00 437.475
PCSat 05 May 06:05:14 06:08:34 17° 107° (ESE) 06:12:06 145.827
Cosmos 2499 05 May 06:14:44 06:22:12 61° 267° (W) 06:29:10 435.465 / 435.565
HORYU 2 05 May 06:19:36 06:23:45 36° 293° (WNW) 06:27:49 437.375
CUBESAT XI-V 05 May 06:21:20 06:25:27 34° 67° (ENE) 06:29:37 437.345
Gurwin Techsat 1B 05 May 06:30:38 06:32:46 12° 308° (NW) 06:34:39 435.225
O/OREOS (USA 219) 05 May 06:41:40 06:46:10 70° 62° (ENE) 06:50:38 437.305
DANDE 05 May 06:45:35 06:47:46 11° 286° (WNW) 06:49:21 436.750
Cosmos 2491 05 May 06:56:25 06:57:57 11° 38° (NE) 07:00:00 435.465 / 435.565
M-CUBED/EXP-1 PRIME 05 May 07:05:42 07:10:31 77° 251° (WSW) 07:15:10 437.505
PRISM 05 May 07:07:22 07:11:23 55° 72° (ENE) 07:15:26 437.425
AO-7 05 May 07:16:25 07:24:21 49° 300° (WNW) 07:32:13 29.400- 29.500
CUTE-I 05 May 07:25:26 07:30:13 34° 95° (E) 07:35:04 437.470
STRAND 1 05 May 07:29:52 07:34:57 75° 72° (ENE) 07:40:04 437.568
AUBIESAT-1 05 May 07:38:10 07:42:43 43° 256° (WSW) 07:47:06 437.475
Cubesat XI-IV 05 May 07:38:13 07:43:18 43° 98° (E) 07:48:23 437.490
JAS-2 05 May 07:39:22 07:43:34 19° 306° (NW) 07:47:20 435.910
BEESAT 3 05 May 07:41:42 07:44:24 17° 29° (NNE) 07:47:09 437.485
PCSat 05 May 07:45:56 07:51:22 85° 303° (WNW) 07:56:51 145.827
BEESAT 2 05 May 07:57:06 08:00:02 18° 30° (NNE) 08:02:59 435.950
CUBESAT XI-V 05 May 07:58:49 08:02:56 31° 266° (W) 08:07:01 437.345
Cosmos 2499 05 May 08:11:31 08:13:44 11° 288° (WNW) 08:15:25 435.465 / 435.565
O/OREOS (USA 219) 05 May 08:22:31 08:25:05 15° 260° (W) 08:27:29 437.305
AIST 2 05 May 08:26:40 08:29:16 16° 26° (NNE) 08:31:55 435.215
BRITE-PL 05 May 08:32:48 08:36:04 16° 86° (E) 08:39:38 437.365/2234.400
ISS 05 May 08:44:32 08:46:19 14° 137° (SE) 08:48:10 145.825
PRISM 05 May 08:44:37 08:47:15 16° 270° (W) 08:49:45 437.425
M-CUBED/EXP-1 PRIME 05 May 08:44:42 08:46:06 11° 270° (W) 08:47:13 437.505
Cosmos 2491 05 May 08:49:56 08:58:10 42° 67° (ENE) 09:06:28 435.465 / 435.565
GOMX 1 05 May 09:02:49 09:06:39 20° 88° (E) 09:10:41 467.674
CUTE-I 05 May 09:05:26 09:10:24 40° 294° (WNW) 09:15:19 437.470
HO-68 05 May 09:05:26 09:10:15 20° 86° (E) 09:15:20 435.675
AO-7 05 May 09:10:44 09:15:20 16° 323° (NW) 09:19:40 29.400- 29.500
STRAND 1 05 May 09:11:32 09:14:49 16° 272° (W) 09:17:54 437.568
SEEDS 05 May 09:15:27 09:16:14 11° 85° (E) 09:17:15 437.485
Cubesat XI-IV 05 May 09:18:36 09:23:18 32° 296° (WNW) 09:27:56 437.490
BEESAT 3 05 May 09:18:59 09:23:07 75° 50° (NE) 09:27:11 437.485
PCSat 05 May 09:31:21 09:35:37 22° 327° (NNW) 09:39:49 145.827
BEESAT 2 05 May 09:34:35 09:38:45 87° 50° (NE) 09:42:51 435.950
CANX-2 05 May 09:40:13 09:43:46 25° 93° (E) 09:47:19 2200.000
ANTELSAT 05 May 09:40:50 09:42:54 13° 57° (ENE) 09:45:12 437.575/2403.000
CUTE 1.7 + AOD 2 05 May 09:47:35 09:51:13 27° 93° (E) 09:54:53 437.475
CINEMA 3 05 May 09:49:25 09:52:46 18° 87° (E) 09:56:16 145.822/145.860
SO-50 05 May 09:50:54 09:55:07 35° 118° (ESE) 09:59:31 436.795
YUBILEINY 05 May 09:56:32 10:04:14 37° 85° (E) 10:12:04 435.215
Oscar 11 05 May 10:01:09 10:02:28 11° 85° (E) 10:04:00 145.826/435.025
AIST 1 05 May 10:03:20 10:05:20 13° 62° (ENE) 10:07:30
AIST 2 05 May 10:04:29 10:08:43 60° 48° (NE) 10:12:53 435.215
COMPASS 1 05 May 10:06:01 10:09:40 28° 94° (E) 10:13:19 437.405
BRITE-PL 05 May 10:09:50 10:15:14 85° 287° (WNW) 10:20:55 437.365/2234.400
CUBEBUG 2 05 May 10:12:56 10:15:40 16° 86° (E) 10:18:34 437.445
UWE-3 05 May 10:16:26 10:18:37 13° 85° (E) 10:21:01 435.000/436.395/437.385
ISS 05 May 10:18:58 10:22:12 71° 155° (SSE) 10:25:28 145.825
DUCHIFAT 1 05 May 10:22:20 10:24:24 14° 59° (ENE) 10:26:38 145.980
TIGRISAT 05 May 10:23:23 10:27:19 28° 65° (ENE) 10:31:23 435.000
DOVE 4 05 May 10:23:57 10:29:12 65° 100° (E) 10:34:31 437.250
ZACube-1 05 May 10:26:44 10:28:51 13° 85° (E) 10:31:11 437.345
UNISAT 6 05 May 10:32:24 10:36:36 34° 67° (ENE) 10:40:53 437.425
POLYITAN 1 05 May 10:34:07 10:36:59 18° 62° (ENE) 10:40:00 437.675
AAUSAT CUBESAT 2 05 May 10:39:04 10:43:11 54° 100° (E) 10:47:15 437.432
DELFI C3 05 May 10:39:25 10:42:22 20° 91° (E) 10:45:24 145.870
GOMX 1 05 May 10:39:56 10:45:16 70° 287° (WNW) 10:50:45 467.674
QB50P1 05 May 10:45:44 10:49:01 23° 64° (ENE) 10:52:24 145.935-145.965
Cosmos 2491 05 May 10:46:51 10:55:23 54° 270° (W) 11:03:49 435.465 / 435.565
SEEDS 05 May 10:48:29 10:52:45 86° 285° (WNW) 10:56:57 437.485
HO-68 05 May 10:51:50 10:59:05 89° 106° (ESE) 11:06:16 435.675
DX 1 05 May 10:52:56 10:54:47 13° 87° (E) 10:56:51 434.975-435.025
BEESAT 3 05 May 10:58:20 11:00:38 14° 248° (WSW) 11:02:46 437.485
BUGSAT 1 05 May 11:00:35 11:03:38 21° 64° (ENE) 11:06:48 437.445
ANTELSAT 05 May 11:14:19 11:18:59 82° 74° (ENE) 11:23:45 437.575/2403.000
BEESAT 2 05 May 11:14:30 11:16:17 12° 249° (WSW) 11:17:53 435.950
QB50P2 05 May 11:15:01 11:19:01 42° 70° (ENE) 11:23:06 145.880/145.840
CANX-2 05 May 11:15:52 11:19:48 36° 291° (WNW) 11:23:40 2200.000
UKube-1 05 May 11:19:13 11:22:32 21° 92° (E) 11:25:56 .
PCSat 05 May 11:19:41 11:21:09 11° 352° (N) 11:22:36 145.827
CUTE 1.7 + AOD 2 05 May 11:23:20 11:27:12 33° 292° (WNW) 11:31:00 437.475
NANOSAT C BR1 05 May 11:25:09 11:29:15 52° 71° (ENE) 11:33:25 145.865
CINEMA 3 05 May 11:25:28 11:30:31 69° 286° (WNW) 11:35:29 145.822/145.860
Cosmos 2504 05 May 11:27:29 11:31:09 14° 73° (ENE) 11:35:18 435.465 / 435.565
AISAT 05 May 11:28:47 11:31:25 16° 88° (E) 11:34:13 437.250
SO-50 05 May 11:31:03 11:35:37 43° 319° (NW) 11:40:18 436.795
FUNcube-1 05 May 11:31:17 11:35:48 53° 99° (E) 11:40:13 145.935
POPSAT HIP 1 05 May 11:33:24 11:37:35 63° 73° (ENE) 11:41:50 437.405
Oscar 11 05 May 11:34:59 11:39:21 84° 285° (WNW) 11:43:40 145.826/435.025
AIST 1 05 May 11:39:20 11:43:37 75° 263° (W) 11:47:55
COMPASS 1 05 May 11:41:38 11:45:21 31° 293° (WNW) 11:49:01 437.405
AIST 2 05 May 11:43:53 11:46:56 19° 246° (WSW) 11:49:51 435.215
CUBEBUG 2 05 May 11:48:10 11:52:58 73° 287° (WNW) 11:57:40 437.445
BRITE-PL 05 May 11:49:47 11:53:08 17° 301° (WNW) 11:56:25 437.365/2234.400
UWE-3 05 May 11:51:07 11:55:51 81° 285° (WNW) 12:00:29 435.000/436.395/437.385
YUBILEINY 05 May 11:52:02 12:00:44 59° 286° (WNW) 12:09:25 435.215
DUCHIFAT 1 05 May 11:55:27 11:59:40 79° 257° (WSW) 12:03:57 145.980
ISS 05 May 11:55:30 11:58:41 47° 354° (N) 12:01:52 145.825
TIGRISAT 05 May 11:59:33 12:03:56 40° 264° (W) 12:08:22 435.000
ZACube-1 05 May 12:01:15 12:05:53 79° 285° (WNW) 12:10:25 437.345
DOVE 4 05 May 12:02:28 12:06:34 23° 298° (WNW) 12:10:34 437.250
HUMSAT D 05 May 12:03:29 12:07:46 56° 100° (E) 12:11:58 437.325/437.525
POLYITAN 1 05 May 12:08:21 12:12:32 56° 260° (W) 12:16:47 437.675
UNISAT 6 05 May 12:09:12 12:13:23 32° 265° (W) 12:17:37 437.425
50 SAT 05 May 12:11:17 12:15:06 40° 97° (E) 12:18:52 437.505
DELFI C3 05 May 12:13:54 12:17:43 41° 290° (WNW) 12:21:30 145.870
CUBEBUG 1 05 May 12:15:27 12:18:53 22° 92° (E) 12:22:24 437.445
AAUSAT CUBESAT 2 05 May 12:15:34 12:18:28 18° 297° (WNW) 12:21:13 437.432
GOMX 1 05 May 12:19:57 12:22:36 14° 304° (NW) 12:25:04 467.674
QB50P1 05 May 12:20:38 12:24:40 42° 262° (W) 12:28:45 145.935-145.965
SEEDS 05 May 12:26:25 12:27:55 11° 302° (WNW) 12:29:15 437.485
DX 1 05 May 12:27:16 12:31:40 78° 288° (WNW) 12:36:03 434.975-435.025
BUGSAT 1 05 May 12:35:04 12:38:54 41° 262° (W) 12:42:47 437.445
HO-68 05 May 12:40:31 12:46:03 24° 308° (NW) 12:51:24 435.675
VELOX 1 05 May 12:41:41 12:46:10 75° 103° (ESE) 12:50:39 145.980
ESTCUBE 1 05 May 12:45:00 12:49:22 48° 99° (E) 12:53:44 437.505/2401.250
Cosmos 2491 05 May 12:47:51 12:50:19 11° 291° (WNW) 12:52:08 435.465 / 435.565
QB50P2 05 May 12:51:48 12:55:08 22° 268° (W) 12:58:25 145.880/145.840
SPROUT 05 May 12:53:41 12:56:25 17° 89° (E) 12:59:17 437.525
ANTELSAT 05 May 12:54:04 12:56:29 13° 275° (W) 12:58:41 437.575/2403.000
UKube-1 05 May 12:54:46 12:58:55 44° 291° (WNW) 13:03:03 .
NANOSAT C BR1 05 May 13:02:31 13:05:27 18° 270° (W) 13:08:18 145.865
AISAT 05 May 13:04:03 13:08:31 65° 287° (WNW) 13:12:58 437.250
ITAMSAT 1 05 May 13:04:19 13:05:09 10° 51° (NE) 13:06:14 435.822/435.867
PCSat 05 May 13:04:23 13:07:03 14° 19° (NNE) 13:09:49 145.827
CINEMA 3 05 May 13:04:47 13:06:52 12° 305° (NW) 13:08:45 145.822/145.860
RS-15 05 May 13:06:17 13:15:57 41° 110° (ESE) 13:26:01 29.354- 29.394
FUNcube-1 05 May 13:08:18 13:11:48 21° 297° (WNW) 13:15:10 145.935
POPSAT HIP 1 05 May 13:11:29 13:13:58 15° 272° (W) 13:16:19 437.405
Oscar 11 05 May 13:13:14 13:14:53 12° 302° (WNW) 13:16:21 145.826/435.025
SO-50 05 May 13:14:26 13:17:25 16° 342° (NNW) 13:20:23 436.795
Cosmos 2504 05 May 13:14:31 13:23:08 62° 93° (E) 13:31:27 435.465 / 435.565
TISAT 1 05 May 13:16:10 13:19:24 21° 92° (E) 13:22:43 437.305
CUBEBUG 2 05 May 13:26:59 13:28:52 12° 304° (NW) 13:30:33 437.445
UWE-3 05 May 13:29:30 13:31:40 13° 303° (WNW) 13:33:39 435.000/436.395/437.385
VERMONT LUNAR 05 May 13:31:30 13:33:06 13° 161° (SSE) 13:34:45 437.305
ISS 05 May 13:32:05 13:35:19 59° 14° (NNE) 13:38:33 145.825
Oscar 19 05 May 13:39:27 13:44:26 51° 69° (ENE) 13:49:30 437.125/150
ZACube-1 05 May 13:39:37 13:41:32 12° 303° (WNW) 13:43:15 437.345
HUMSAT D 05 May 13:40:06 13:43:09 19° 298° (WNW) 13:46:05 437.325/437.525
50 SAT 05 May 13:46:34 13:49:40 21° 296° (WNW) 13:52:40 437.505
CUBEBUG 1 05 May 13:51:17 13:55:28 43° 290° (WNW) 13:59:38 437.445
YUBILEINY 05 May 13:54:54 14:00:02 16° 313° (NW) 14:04:44 435.215
DX 1 05 May 14:05:47 14:07:14 11° 304° (NW) 14:08:31 434.975-435.025
BEESAT 05 May 14:10:31 14:13:00 14° 87° (E) 14:15:42 436.000
SWISSCUBE 05 May 14:14:32 14:17:34 17° 89° (E) 14:20:44 437.505
PHONESAT 2.4 05 May 14:16:20 14:17:43 12° 158° (SSE) 14:19:09 2401.200-2431.200
VELOX 1 05 May 14:19:32 14:22:14 16° 301° (WNW) 14:24:49 145.980
ESTCUBE 1 05 May 14:22:28 14:25:59 22° 297° (WNW) 14:29:25 437.505/2401.250
JAS-2 05 May 14:26:30 14:30:22 16° 51° (NE) 14:34:19 435.910
GONETS M04 05 May 14:26:43 14:29:45 13° 71° (ENE) 14:33:24
SPROUT 05 May 14:28:39 14:32:56 58° 288° (WNW) 14:37:11 437.525
Gurwin Techsat 1B 05 May 14:33:45 14:38:47 46° 68° (ENE) 14:43:53 435.225
AO-7 05 May 14:36:33 14:42:48 25° 47° (NE) 14:49:16 29.400- 29.500
ITAMSAT 1 05 May 14:38:39 14:43:41 56° 70° (ENE) 14:48:46 435.822/435.867
PCSat 05 May 14:47:06 14:52:08 37° 43° (NE) 14:57:09 145.827
TISAT 1 05 May 14:51:20 14:55:26 44° 290° (WNW) 14:59:29 437.305
SO-50 05 May 14:57:52 14:59:56 12° 6° (N) 15:02:03 436.795
VERMONT LUNAR 05 May 15:07:14 15:09:50 21° 178° (S) 15:12:26 437.305
ISS 05 May 15:08:32 15:11:36 38° 213° (SSW) 15:14:39 145.825
Cosmos 2504 05 May 15:09:06 15:17:06 36° 294° (WNW) 15:24:41 435.465 / 435.565
RS-15 05 May 15:16:49 15:27:44 72° 315° (NW) 15:39:03 29.354- 29.394
Oscar 19 05 May 15:19:50 15:24:07 25° 268° (W) 15:28:20 437.125/150
ITUPSAT 1 05 May 15:23:07 15:27:53 64° 102° (ESE) 15:32:37 437.325
HORYU 2 05 May 15:44:50 15:49:03 41° 68° (ENE) 15:53:19 437.375
BEESAT 05 May 15:46:44 15:51:31 77° 286° (WNW) 15:56:16 436.000
SWISSCUBE 05 May 15:51:12 15:55:57 66° 288° (WNW) 16:00:40 437.505
PHONESAT 2.4 05 May 15:52:25 15:55:12 22° 174° (S) 15:58:01 2401.200-2431.200
KKS-1 05 May 15:55:41 15:59:36 29° 95° (E) 16:03:32 437.445
JAS-2 05 May 16:06:52 16:14:21 60° 69° (ENE) 16:21:13 435.910
Gurwin Techsat 1B 05 May 16:14:24 16:19:00 29° 267° (W) 16:23:33 435.225
GONETS M04 05 May 16:16:17 16:24:49 59° 92° (E) 16:33:28
ITAMSAT 1 05 May 16:19:31 16:23:36 23° 269° (W) 16:27:35 435.822/435.867
CUSAT 1 05 May 16:20:56 16:25:28 36° 88° (E) 16:31:23 437.405
STARS 05 May 16:23:01 16:27:07 34° 96° (E) 16:31:12 437.465
AO-7 05 May 16:26:20 16:34:38 84° 68° (ENE) 16:42:59 29.400- 29.500
PCSat 05 May 16:30:30 16:35:43 47° 244° (WSW) 16:40:52 145.827
DANDE 05 May 16:32:02 16:36:11 32° 86° (E) 16:41:37 436.750
SO-50 05 May 16:38:17 16:42:14 23° 30° (NNE) 16:46:14 436.795
VERMONT LUNAR 05 May 16:44:25 16:46:37 16° 194° (SSW) 16:48:47 437.305
ITUPSAT 1 05 May 17:01:57 17:05:22 19° 300° (WNW) 17:08:40 437.325
Cosmos 2499 05 May 17:03:40 17:09:56 24° 81° (E) 17:16:15 435.465 / 435.565
CUTE-I 05 May 17:14:14 17:16:57 15° 54° (NE) 17:19:52 437.470
HORYU 2 05 May 17:22:07 17:25:52 25° 267° (W) 17:29:34 437.375
Cubesat XI-IV 05 May 17:26:27 17:29:54 18° 57° (ENE) 17:33:29 437.490
BEESAT 05 May 17:26:32 17:28:39 13° 305° (NW) 17:30:34 436.000
PHONESAT 2.4 05 May 17:30:08 17:32:47 20° 191° (S) 17:35:26 2401.200-2431.200
SWISSCUBE 05 May 17:31:42 17:32:59 11° 306° (NW) 17:34:04 437.505
KKS-1 05 May 17:32:10 17:36:18 35° 293° (WNW) 17:40:22 437.445
RS-15 05 May 17:32:20 17:42:25 37° 346° (NNW) 17:52:50 29.354- 29.394
MOZHAYETS 4 05 May 17:43:07 17:47:07 30° 94° (E) 17:51:10
JAS-2 05 May 17:52:49 17:59:43 34° 267° (W) 18:06:02 435.910
STARS 05 May 17:59:36 18:03:31 29° 294° (WNW) 18:07:20 437.465
CUSAT 1 05 May 18:03:16 18:08:08 39° 295° (WNW) 18:14:24 437.405
GONETS M04 05 May 18:14:04 18:22:11 38° 295° (WNW) 18:30:15
DANDE 05 May 18:14:44 18:19:16 39° 295° (WNW) 18:25:14 436.750
SO-50 05 May 18:18:28 18:23:29 88° 59° (ENE) 18:28:26 436.795
AO-7 05 May 18:21:53 18:28:31 25° 271° (W) 18:34:55 29.400- 29.500
CUTE-I 05 May 18:50:59 18:56:17 78° 73° (ENE) 19:01:37 437.470
Cosmos 2499 05 May 18:53:32 19:02:18 86° 278° (W) 19:10:36 435.465 / 435.565
Cubesat XI-IV 05 May 19:04:05 19:09:25 83° 254° (WSW) 19:14:47 437.490
MOZHAYETS 4 05 May 19:20:15 19:24:25 35° 292° (WNW) 19:28:31
STRAND 1 05 May 19:37:28 19:41:00 19° 89° (E) 19:44:40 437.568
HO-68 05 May 19:38:28 19:43:58 25° 53° (NE) 19:49:38 435.675
BRITE-PL 05 May 19:47:55 19:51:17 22° 62° (ENE) 19:54:55 437.365/2234.400
RS-15 05 May 19:48:03 19:58:26 40° 19° (NNE) 20:09:19 29.354- 29.394
CUBESAT XI-V 05 May 19:50:58 19:55:28 50° 98° (E) 19:59:59 437.345
DOVE 4 05 May 19:58:27 20:00:52 14° 57° (ENE) 20:03:31 437.250
SO-50 05 May 20:00:23 20:03:26 16° 249° (WSW) 20:06:18 436.795
YUBILEINY 05 May 20:01:16 20:07:46 23° 55° (NE) 20:14:30 435.215
SEEDS 05 May 20:10:42 20:12:53 14° 60° (ENE) 20:15:13 437.485
GOMX 1 05 May 20:15:02 20:18:46 26° 64° (ENE) 20:22:48 467.674
M-CUBED/EXP-1 PRIME 05 May 20:19:17 20:23:02 43° 104° (ESE) 20:26:29 437.505
PRISM 05 May 20:21:18 20:25:20 53° 100° (E) 20:29:22 437.425
CUTE-I 05 May 20:33:37 20:37:04 17° 273° (W) 20:40:20 437.470
CANX-2 05 May 20:36:42 20:40:27 30° 67° (ENE) 20:44:16 2200.000
CUTE 1.7 + AOD 2 05 May 20:43:58 20:47:48 32° 68° (ENE) 20:51:41 437.475
Cubesat XI-IV 05 May 20:48:02 20:50:29 13° 276° (W) 20:52:40 437.490
Cosmos 2499 05 May 20:50:10 20:56:47 23° 303° (WNW) 21:02:53 435.465 / 435.565
AUBIESAT-1 05 May 20:50:42 20:54:37 86° 109° (ESE) 20:58:11 437.475
CINEMA 3 05 May 20:54:47 20:58:28 24° 63° (ENE) 21:02:22 145.822/145.860
O/OREOS (USA 219) 05 May 20:57:42 21:01:54 39° 109° (ESE) 21:06:10 437.305
FUNcube-1 05 May 20:58:58 20:59:17 10° 55° (NE) 20:59:50 145.935
Oscar 11 05 May 20:59:11 21:01:47 16° 61° (ENE) 21:04:32 145.826/435.025
COMPASS 1 05 May 21:00:49 21:04:35 33° 68° (ENE) 21:08:25 437.405
CUBEBUG 2 05 May 21:14:41 21:18:03 21° 62° (ENE) 21:21:36 437.445
STRAND 1 05 May 21:15:39 21:20:44 66° 289° (WNW) 21:25:48 437.568
UWE-3 05 May 21:17:00 21:20:05 19° 61° (ENE) 21:23:20 435.000/436.395/437.385
HO-68 05 May 21:23:46 21:30:59 86° 253° (WSW) 21:38:15 435.675
BRITE-PL 05 May 21:25:15 21:29:29 49° 262° (W) 21:34:05 437.365/2234.400
ZACube-1 05 May 21:26:07 21:29:08 18° 61° (ENE) 21:32:18 437.345
CUBESAT XI-V 05 May 21:29:01 21:32:39 23° 297° (WNW) 21:36:12 437.345
DELFI C3 05 May 21:30:40 21:33:46 22° 65° (ENE) 21:36:57 145.870
AAUSAT CUBESAT 2 05 May 21:33:15 21:37:25 60° 73° (ENE) 21:41:35 437.432
DOVE 4 05 May 21:33:21 21:37:54 90° 254° (WSW) 21:42:48 437.250
SEEDS 05 May 21:43:54 21:48:11 77° 257° (WSW) 21:52:29 437.485
DX 1 05 May 21:51:49 21:54:50 19° 62° (ENE) 21:57:59 434.975-435.025
GOMX 1 05 May 21:52:28 21:56:43 41° 264° (W) 22:01:17 467.674
M-CUBED/EXP-1 PRIME 05 May 21:54:42 21:57:38 20° 304° (NW) 22:00:20 437.505
Cosmos 2491 05 May 21:56:16 22:04:06 40° 86° (E) 22:12:09 435.465 / 435.565
YUBILEINY 05 May 21:57:22 22:06:10 86° 80° (E) 22:14:54 435.215
PRISM 05 May 21:57:39 22:00:29 18° 298° (WNW) 22:03:12 437.425
RS-15 05 May 22:01:18 22:12:50 80° 49° (NE) 22:24:54 29.354- 29.394
VELOX 1 05 May 22:08:51 22:11:15 15° 59° (ENE) 22:13:47 145.980
CANX-2 05 May 22:12:30 22:16:22 31° 265° (W) 22:20:13 2200.000
ESTCUBE 1 05 May 22:15:41 22:16:29 11° 56° (NE) 22:17:31 437.505/2401.250
UKube-1 05 May 22:17:34 22:21:19 30° 66° (ENE) 22:25:08 .
CUTE 1.7 + AOD 2 05 May 22:19:57 22:23:45 29° 266° (W) 22:27:30 437.475
AUBIESAT-1 05 May 22:27:14 22:28:46 12° 309° (NW) 22:30:08 437.475
AISAT 05 May 22:30:06 22:33:32 23° 63° (ENE) 22:37:04 437.250
FUNcube-1 05 May 22:30:21 22:34:47 65° 73° (ENE) 22:39:21 145.935
CINEMA 3 05 May 22:30:54 22:35:22 49° 262° (W) 22:40:05 145.822/145.860
Oscar 11 05 May 22:33:09 22:37:31 68° 258° (WSW) 22:41:53 145.826/435.025
COMPASS 1 05 May 22:36:38 22:40:19 28° 266° (W) 22:43:58 437.405
O/OREOS (USA 219) 05 May 22:37:25 22:41:27 29° 308° (NW) 22:45:26 437.305
CUBEBUG 2 05 May 22:49:53 22:54:22 56° 261° (W) 22:59:02 437.445
UWE-3 05 May 22:51:39 22:56:09 65° 259° (W) 23:00:49 435.000/436.395/437.385
STRAND 1 05 May 22:57:07 22:59:05 12° 307° (NW) 23:00:50 437.568
HUMSAT D 05 May 22:58:36 23:02:52 64° 73° (ENE) 23:07:12 437.325/437.525
50 SAT 05 May 22:59:51 23:03:39 40° 70° (ENE) 23:07:29 437.505
ZACube-1 05 May 23:00:35 23:05:03 64° 259° (W) 23:09:39 437.345
Cosmos 2504 05 May 23:03:41 23:10:05 27° 60° (ENE) 23:16:20 435.465 / 435.565
ANTELSAT 05 May 23:04:19 23:06:41 14° 86° (E) 23:09:13 437.575/2403.000
DELFI C3 05 May 23:04:50 23:08:42 40° 262° (W) 23:12:34 145.870
AAUSAT CUBESAT 2 05 May 23:10:53 23:13:28 15° 272° (W) 23:15:56 437.432
DOVE 4 05 May 23:14:50 23:16:37 12° 278° (W) 23:18:10 437.250
HO-68 05 May 23:14:58 23:19:54 19° 274° (W) 23:24:31 435.675
CUBEBUG 1 05 May 23:15:14 23:18:58 30° 66° (ENE) 23:22:47 437.445
DX 1 05 May 23:26:30 23:30:45 55° 259° (W) 23:35:03 434.975-435.025
DUCHIFAT 1 05 May 23:38:04 23:40:06 13° 87° (E) 23:42:19 145.980
VELOX 1 05 May 23:42:53 23:47:17 78° 257° (WSW) 23:51:44 145.980
TIGRISAT 05 May 23:47:30 23:51:46 34° 95° (E) 23:55:57 435.000
ESTCUBE 1 05 May 23:48:08 23:52:37 70° 73° (ENE) 23:57:06 437.505/2401.250
POLYITAN 1 05 May 23:50:48 23:53:52 19° 90° (E) 23:57:00 437.675
SPROUT 05 May 23:51:31 23:54:44 21° 63° (ENE) 23:58:03 437.525
Cosmos 2491 05 May 23:52:16 00:00:49 54° 288° (WNW) 00:09:26 435.465 / 435.565
UKube-1 05 May 23:53:33 23:57:26 32° 264° (W) 00:01:19 .
YUBILEINY 05 May 23:55:27 00:02:01 24° 281° (WNW) 00:08:15 435.215
UNISAT 6 05 May 23:57:00 00:01:28 43° 97° (E) 00:05:50 437.425
QB50P1 06 May 00:02:16 00:05:44 24° 93° (E) 00:09:15 145.935-145.965
AISAT 06 May 00:05:40 00:09:54 45° 261° (W) 00:14:10 437.250
FUNcube-1 06 May 00:08:46 00:11:39 16° 273° (W) 00:14:23 145.935
TISAT 1 06 May 00:12:01 00:15:29 26° 66° (ENE) 00:19:03 437.305
AIST 1 06 May 00:12:31 00:16:39 52° 95° (E) 00:20:50
BUGSAT 1 06 May 00:13:44 00:16:59 22° 92° (E) 00:20:19 437.445
RS-15 06 May 00:14:19 00:24:31 37° 251° (WSW) 00:34:48 29.354- 29.394
QB50P2 06 May 00:32:11 00:36:22 47° 99° (E) 00:40:33 145.880/145.840
50 SAT 06 May 00:35:31 00:38:38 21° 268° (W) 00:41:41 437.505
HUMSAT D 06 May 00:36:31 00:39:07 15° 272° (W) 00:41:35 437.325/437.525
ANTELSAT 06 May 00:39:26 00:44:08 76° 286° (WNW) 00:48:42 437.575/2403.000
NANOSAT C BR1 06 May 00:41:56 00:46:12 58° 100° (E) 00:50:26 145.865
POPSAT HIP 1 06 May 00:50:34 00:54:54 72° 102° (ESE) 00:59:12 437.405
CUBEBUG 1 06 May 00:51:25 00:55:18 32° 264° (W) 00:59:12 437.445
BEESAT 3 06 May 00:52:59 00:56:48 40° 120° (ESE) 01:00:42 437.485
Cosmos 2504 06 May 00:56:39 01:04:27 71° 265° (W) 01:11:42 435.465 / 435.565
ITUPSAT 1 06 May 00:57:57 01:01:00 17° 59° (ENE) 01:04:09 437.325
BEESAT 2 06 May 01:09:24 01:13:22 48° 122° (ESE) 01:17:24 435.950
CUSAT 1 06 May 01:11:38 01:15:32 14° 46° (NE) 01:19:55 437.405
DUCHIFAT 1 06 May 01:12:11 01:16:29 71° 287° (WNW) 01:20:45 145.980
BEESAT 06 May 01:20:09 01:24:04 26° 64° (ENE) 01:28:04 436.000
TIGRISAT 06 May 01:24:19 01:28:28 32° 294° (WNW) 01:32:30 435.000
SWISSCUBE 06 May 01:24:25 01:28:32 30° 65° (ENE) 01:32:44 437.505
DANDE 06 May 01:24:47 01:28:45 15° 47° (NE) 01:33:16 436.750
POLYITAN 1 06 May 01:25:52 01:30:06 50° 289° (WNW) 01:34:17 437.675
SPROUT 06 May 01:26:26 01:30:34 46° 262° (W) 01:34:45 437.525
ESTCUBE 1 06 May 01:27:27 01:30:03 15° 273° (W) 01:32:28 437.505/2401.250
UNISAT 6 06 May 01:34:10 01:38:03 26° 296° (WNW) 01:41:48 437.425
QB50P1 06 May 01:37:43 01:41:45 39° 291° (WNW) 01:45:45 145.935-145.965
AIST 2 06 May 01:44:07 01:48:02 36° 119° (ESE) 01:52:01 435.215
TISAT 1 06 May 01:47:17 01:51:09 35° 263° (W) 01:55:04 437.305
BUGSAT 1 06 May 01:48:40 01:52:39 42° 290° (WNW) 01:56:39 437.445
Oscar 19 06 May 01:48:51 01:51:13 13° 85° (E) 01:53:50 437.125/150
AIST 1 06 May 01:51:45 01:54:42 18° 295° (WNW) 01:57:33
Cosmos 2491 06 May 01:55:51 02:00:24 14° 316° (NW) 02:04:31 435.465 / 435.565
QB50P2 06 May 02:08:42 02:12:00 21° 297° (WNW) 02:15:13 145.880/145.840
ANTELSAT 06 May 02:18:16 02:20:09 12° 304° (NW) 02:21:50 437.575/2403.000
NANOSAT C BR1 06 May 02:18:42 02:21:40 18° 298° (WNW) 02:24:32 145.865
GONETS M04 06 May 02:21:47 02:29:46 37° 64° (ENE) 02:37:49
POPSAT HIP 1 06 May 02:27:42 02:30:17 15° 300° (WNW) 02:32:45 437.405
BEESAT 3 06 May 02:31:11 02:34:54 31° 320° (NW) 02:38:37 437.485
ITUPSAT 1 06 May 02:33:36 02:38:24 74° 257° (WSW) 02:43:11 437.325
